This is the latest recevied weather packets stored in our database for station/object KO6MEX-13. If no packets are shown the sender has not sent any weather packets the latest 10 day(s).
| Time | Temp. | Humidity | Pressure | Rain* | Wind** | Luminosity | Snow |
|---|---|---|---|---|---|---|---|
| 1777143928 | 15° C | 66% | 1016.8 hPa | 0 mm | - | 120 W/m² | - |
| 1777143625 | 15° C | 65% | 1016.5 hPa | 0 mm | - | 118 W/m² | - |
| 1777143321 | 15° C | 66% | 1016.5 hPa | 0 mm | - | 124 W/m² | - |
| 1777143016 | 15° C | 67% | 1016.6 hPa | 0 mm | - | 134 W/m² | - |
| 1777142712 | 15° C | 66% | 1016.6 hPa | 0 mm | - | 140 W/m² | - |
| 1777142410 | 15° C | 66% | 1016.6 hPa | 0 mm | - | 154 W/m² | - |
| 1777142110 | 15° C | 65% | 1016.6 hPa | 0 mm | - | 154 W/m² | - |
| 1777141806 | 15.56° C | 65% | 1016.5 hPa | 0 mm | - | 162 W/m² | - |
| 1777141503 | 15.56° C | 64% | 1016.5 hPa | 0 mm | - | 177 W/m² | - |
| 1777141202 | 15.56° C | 65% | 1016.7 hPa | 0 mm | - | 184 W/m² | - |
| 1777140898 | 15° C | 67% | 1016.6 hPa | 0 mm | - | 189 W/m² | - |
| 1777140595 | 15° C | 66% | 1016.6 hPa | 0 mm | - | 150 W/m² | - |
| 1777140292 | 15° C | 65% | 1016.5 hPa | 0 mm | - | 133 W/m² | - |
| 1777139989 | 15° C | 66% | 1016.7 hPa | 0 mm | - | 137 W/m² | - |
| 1777139687 | 15° C | 66% | 1016.6 hPa | 0 mm | - | 144 W/m² | - |
| 1777139382 | 15° C | 66% | 1016.6 hPa | 0 mm | - | 138 W/m² | - |
| 1777139078 | 15° C | 66% | 1016.6 hPa | 0 mm | - | 121 W/m² | - |
| 1777138774 | 15° C | 66% | 1016.6 hPa | 0 mm | - | 122 W/m² | - |
| 1777138470 | 15° C | 66% | 1016.7 hPa | 0 mm | - | 118 W/m² | - |
| 1777138167 | 15° C | 68% | 1016.6 hPa | 0 mm | - | 114 W/m² | - |
| 1777137863 | 15° C | 67% | 1016.7 hPa | 0 mm | - | 106 W/m² | - |
| 1777137559 | 15° C | 69% | 1016.7 hPa | 0 mm | - | 102 W/m² | - |
| 1777137257 | 14.44° C | 68% | 1016.6 hPa | 0 mm | - | 97 W/m² | - |
| 1777136954 | 14.44° C | 70% | 1016.7 hPa | 0 mm | - | 94 W/m² | - |
| 1777136650 | 14.44° C | 68% | 1016.5 hPa | 0 mm | - | 107 W/m² | - |
* Rain latest hour (hover to see other rain measurements)
** Current wind speed in m/s (hover to see current wind gust speed)